Tracking 18984 objects as of 24-Feb-2018
HD Live streaming from Space Station
objects crossing your sky now

ARABSAT 1B

Track ARABSAT 1B now!
ARABSAT 1B is classified as:


NORAD ID: 15825
Int'l Code: 1985-048C
Perigee: 35,666.7 km
Apogee: 35,848.1 km
Inclination: 15.0 °
Period: 1,434.2 minutes
Semi major axis: 42128 km
RCS: 3.4988 m2 (large)
Launch date: June 17, 1985
Source: Arab Satellite Communications Organization (AB)
Launch site: AIR FORCE EASTERN TEST RANGE (AFETR)
aabbcc
Your satellite tracking list
Your tracking list is empty




NASA's NSSDC Master Catalog

Two Line Element Set (TLE):
1 15825U 85048C   18051.06419628 +.00000083 +00000-0 +00000-0 0  9998
2 15825 015.0120 000.1544 0021535 308.4588 238.7593 01.00401654104911
Source of the keplerian elements: AFSPC